Year,Month,Day,Hour,Minute,Value (Times are PST for temperature in C)
2016,04,22,00,00,11.80
2016,04,22,00,01,11.80
2016,04,22,00,02,11.80
2016,04,22,00,03,11.80
2016,04,22,00,04,11.80
2016,04,22,00,05,11.80
2016,04,22,00,06,11.80
2016,04,22,00,07,11.80
2016,04,22,00,08,11.80
2016,04,22,00,09,11.80
2016,04,22,00,10,11.80
2016,04,22,00,11,11.80
2016,04,22,00,12,11.80
2016,04,22,00,13,11.80
2016,04,22,00,14,11.80
2016,04,22,00,15,11.80
2016,04,22,00,16,11.80
2016,04,22,00,17,11.80
2016,04,22,00,18,11.80
2016,04,22,00,19,11.80
2016,04,22,00,20,11.80
2016,04,22,00,21,11.80
2016,04,22,00,22,11.80
2016,04,22,00,23,11.80
2016,04,22,00,24,11.80
2016,04,22,00,25,11.80
2016,04,22,00,26,11.80
2016,04,22,00,27,11.70
2016,04,22,00,28,11.70
2016,04,22,00,29,11.70
2016,04,22,00,30,11.70
2016,04,22,00,31,11.70
2016,04,22,00,32,11.70
2016,04,22,00,33,11.70
2016,04,22,00,34,11.70
2016,04,22,00,35,11.70
2016,04,22,00,36,11.70
2016,04,22,00,37,11.70
2016,04,22,00,38,11.70
2016,04,22,00,39,11.70
2016,04,22,00,40,11.70
2016,04,22,00,41,11.70
2016,04,22,00,42,11.70
2016,04,22,00,43,11.70
2016,04,22,00,44,11.60
2016,04,22,00,45,11.60
2016,04,22,00,46,11.60
2016,04,22,00,47,11.60
2016,04,22,00,48,11.60
2016,04,22,00,49,11.60
2016,04,22,00,50,11.50
2016,04,22,00,51,11.50
2016,04,22,00,52,11.50
2016,04,22,00,53,11.40
2016,04,22,00,54,11.40
2016,04,22,00,55,11.40
2016,04,22,00,56,11.40
2016,04,22,00,57,11.40
2016,04,22,00,58,11.40
2016,04,22,00,59,11.40
2016,04,22,01,00,11.40
2016,04,22,01,01,11.30
2016,04,22,01,02,11.30
2016,04,22,01,03,11.30
2016,04,22,01,04,11.30
2016,04,22,01,05,11.30
2016,04,22,01,06,11.30
2016,04,22,01,07,11.30
2016,04,22,01,08,11.30
2016,04,22,01,09,11.30
2016,04,22,01,10,11.30
2016,04,22,01,11,11.30
2016,04,22,01,12,11.30
2016,04,22,01,13,11.30
2016,04,22,01,14,11.20
2016,04,22,01,15,11.20
2016,04,22,01,16,11.20
2016,04,22,01,17,11.20
2016,04,22,01,18,11.20
2016,04,22,01,19,11.20
2016,04,22,01,20,11.20
2016,04,22,01,21,11.20
2016,04,22,01,22,11.20
2016,04,22,01,23,11.10
2016,04,22,01,24,11.10
2016,04,22,01,25,11.10
2016,04,22,01,26,11.00
2016,04,22,01,27,11.00
2016,04,22,01,28,11.00
2016,04,22,01,29,11.00
2016,04,22,01,30,11.00
2016,04,22,01,31,11.00
2016,04,22,01,32,11.00
2016,04,22,01,33,11.00
2016,04,22,01,34,10.90
2016,04,22,01,35,10.90
2016,04,22,01,36,10.90
2016,04,22,01,37,10.90
2016,04,22,01,38,10.90
2016,04,22,01,39,10.90
2016,04,22,01,40,10.90
2016,04,22,01,41,10.80
2016,04,22,01,42,10.80
2016,04,22,01,43,10.80
2016,04,22,01,44,10.80
2016,04,22,01,45,10.80
2016,04,22,01,46,10.80
2016,04,22,01,47,10.80
2016,04,22,01,48,10.80
2016,04,22,01,49,10.80
2016,04,22,01,50,10.80
2016,04,22,01,51,10.80
2016,04,22,01,52,10.80
2016,04,22,01,53,10.80
2016,04,22,01,54,10.80
2016,04,22,01,55,10.80
2016,04,22,01,56,10.80
2016,04,22,01,57,10.80
2016,04,22,01,58,10.80
2016,04,22,01,59,10.80
2016,04,22,02,00,10.90
2016,04,22,02,01,10.90
2016,04,22,02,02,10.90
2016,04,22,02,03,11.00
2016,04,22,02,04,11.00
2016,04,22,02,05,11.00
2016,04,22,02,06,11.00
2016,04,22,02,07,11.00
2016,04,22,02,08,11.00
2016,04,22,02,09,11.00
2016,04,22,02,10,11.00
2016,04,22,02,11,11.00
2016,04,22,02,12,11.00
2016,04,22,02,13,11.00
2016,04,22,02,14,11.00
2016,04,22,02,15,11.00
2016,04,22,02,16,11.10
2016,04,22,02,17,11.10
2016,04,22,02,18,11.10
2016,04,22,02,19,11.10
2016,04,22,02,20,11.10
2016,04,22,02,21,11.10
2016,04,22,02,22,11.10
2016,04,22,02,23,11.10
2016,04,22,02,24,11.10
2016,04,22,02,25,11.10
2016,04,22,02,26,11.10
2016,04,22,02,27,11.10
2016,04,22,02,28,11.10
2016,04,22,02,29,11.00
2016,04,22,02,30,11.00
2016,04,22,02,31,11.00
2016,04,22,02,32,10.90
2016,04,22,02,33,10.90
2016,04,22,02,34,10.90
2016,04,22,02,35,10.90
2016,04,22,02,36,10.90
2016,04,22,02,37,10.90
2016,04,22,02,38,10.80
2016,04,22,02,39,10.80
2016,04,22,02,40,10.80
2016,04,22,02,41,10.80
2016,04,22,02,42,10.80
2016,04,22,02,43,10.80
2016,04,22,02,44,10.80
2016,04,22,02,45,10.80
2016,04,22,02,46,10.80
2016,04,22,02,47,10.90
2016,04,22,02,48,10.90
2016,04,22,02,49,10.90
2016,04,22,02,50,10.90
2016,04,22,02,51,10.90
2016,04,22,02,52,10.90
2016,04,22,02,53,10.90
2016,04,22,02,54,10.90
2016,04,22,02,55,10.90
2016,04,22,02,56,10.90
2016,04,22,02,57,10.90
2016,04,22,02,58,10.90
2016,04,22,02,59,10.90
2016,04,22,03,00,10.90
2016,04,22,03,01,11.00
2016,04,22,03,02,11.00
2016,04,22,03,03,11.10
2016,04,22,03,04,11.10
2016,04,22,03,05,11.10
2016,04,22,03,06,11.10
2016,04,22,03,07,11.20
2016,04,22,03,08,11.20
2016,04,22,03,09,11.20
2016,04,22,03,10,11.20
2016,04,22,03,11,11.20
2016,04,22,03,12,11.20
2016,04,22,03,13,11.20
2016,04,22,03,14,11.20
2016,04,22,03,15,11.20
2016,04,22,03,16,11.20
2016,04,22,03,17,11.20
2016,04,22,03,18,11.20
2016,04,22,03,19,11.20
2016,04,22,03,20,11.20
2016,04,22,03,21,11.20
2016,04,22,03,22,11.20
2016,04,22,03,23,11.20
2016,04,22,03,24,11.20
2016,04,22,03,25,11.20
2016,04,22,03,26,11.20
2016,04,22,03,27,11.20
2016,04,22,03,28,11.30
2016,04,22,03,29,11.30
2016,04,22,03,30,11.30
2016,04,22,03,31,11.40
2016,04,22,03,32,11.40
2016,04,22,03,33,11.40
2016,04,22,03,34,11.40
2016,04,22,03,35,11.40
2016,04,22,03,36,11.40
2016,04,22,03,37,11.40
2016,04,22,03,38,11.40
2016,04,22,03,39,11.40
2016,04,22,03,40,11.40
2016,04,22,03,41,11.40
2016,04,22,03,42,11.40
2016,04,22,03,43,11.40
2016,04,22,03,44,11.40
2016,04,22,03,45,11.40
2016,04,22,03,46,11.40
2016,04,22,03,47,11.30
2016,04,22,03,48,11.30
2016,04,22,03,49,11.30
2016,04,22,03,50,11.30
2016,04,22,03,51,11.30
2016,04,22,03,52,11.30
2016,04,22,03,53,11.30
2016,04,22,03,54,11.30
2016,04,22,03,55,11.30
2016,04,22,03,56,11.30
2016,04,22,03,57,11.30
2016,04,22,03,58,11.30
2016,04,22,03,59,11.30
2016,04,22,04,00,11.30
2016,04,22,04,01,11.40
2016,04,22,04,02,11.40
2016,04,22,04,03,11.40
2016,04,22,04,04,11.40
2016,04,22,04,05,11.50
2016,04,22,04,06,11.50
2016,04,22,04,07,11.50
2016,04,22,04,08,11.50
2016,04,22,04,09,11.50
2016,04,22,04,10,11.50
2016,04,22,04,11,11.50
2016,04,22,04,12,11.50
2016,04,22,04,13,11.60
2016,04,22,04,14,11.60
2016,04,22,04,15,11.60
2016,04,22,04,16,11.60
2016,04,22,04,17,11.60
2016,04,22,04,18,11.60
2016,04,22,04,19,11.60
2016,04,22,04,20,11.60
2016,04,22,04,21,11.60
2016,04,22,04,22,11.60
2016,04,22,04,23,11.60
2016,04,22,04,24,11.60
2016,04,22,04,25,11.60
2016,04,22,04,26,11.60
2016,04,22,04,27,11.60
2016,04,22,04,28,11.60
2016,04,22,04,29,11.60
2016,04,22,04,30,11.60
2016,04,22,04,31,11.70
2016,04,22,04,32,11.70
2016,04,22,04,33,11.70
2016,04,22,04,34,11.70
2016,04,22,04,35,11.70
2016,04,22,04,36,11.70
2016,04,22,04,37,11.80
2016,04,22,04,38,11.80
2016,04,22,04,39,11.80
2016,04,22,04,40,11.80
2016,04,22,04,41,11.80
2016,04,22,04,42,11.80
2016,04,22,04,43,11.90
2016,04,22,04,44,11.90
2016,04,22,04,45,11.90
2016,04,22,04,46,11.90
2016,04,22,04,47,11.90
2016,04,22,04,48,12.00
2016,04,22,04,49,12.00
2016,04,22,04,50,12.00
2016,04,22,04,51,12.10
2016,04,22,04,52,12.10
2016,04,22,04,53,12.10
2016,04,22,04,54,12.10
2016,04,22,04,55,12.10
2016,04,22,04,56,12.20
2016,04,22,04,57,12.20
2016,04,22,04,58,12.20
2016,04,22,04,59,12.20
2016,04,22,05,00,12.20
2016,04,22,05,01,12.20
2016,04,22,05,02,12.20
2016,04,22,05,03,12.20
2016,04,22,05,04,12.30
2016,04,22,05,05,12.30
2016,04,22,05,06,12.30
2016,04,22,05,07,12.30
2016,04,22,05,08,12.30
2016,04,22,05,09,12.30
2016,04,22,05,10,12.30
2016,04,22,05,11,12.40
2016,04,22,05,12,12.40
2016,04,22,05,13,12.40
2016,04,22,05,14,12.40
2016,04,22,05,15,12.40
2016,04,22,05,16,12.40
2016,04,22,05,17,12.40
2016,04,22,05,18,12.40
2016,04,22,05,19,12.40
2016,04,22,05,20,12.40
2016,04,22,05,21,12.40
2016,04,22,05,22,12.40
2016,04,22,05,23,12.40
2016,04,22,05,24,12.40
2016,04,22,05,25,12.40
2016,04,22,05,26,12.40
2016,04,22,05,27,12.40
2016,04,22,05,28,12.40
2016,04,22,05,29,12.40
2016,04,22,05,30,12.40
2016,04,22,05,31,12.50
2016,04,22,05,32,12.50
2016,04,22,05,33,12.50
2016,04,22,05,34,12.50
2016,04,22,05,35,12.50
2016,04,22,05,36,12.50
2016,04,22,05,37,12.60
2016,04,22,05,38,12.60
2016,04,22,05,39,12.60
2016,04,22,05,40,12.70
2016,04,22,05,41,12.70
2016,04,22,05,42,12.70
2016,04,22,05,43,12.70
2016,04,22,05,44,12.70
2016,04,22,05,45,12.80
2016,04,22,05,46,12.80
2016,04,22,05,47,12.80
2016,04,22,05,48,12.80
2016,04,22,05,49,12.80
2016,04,22,05,50,12.80
2016,04,22,05,51,12.90
2016,04,22,05,52,12.90
2016,04,22,05,53,12.90
2016,04,22,05,54,12.90
2016,04,22,05,55,12.90
2016,04,22,05,56,13.00
2016,04,22,05,57,13.00
2016,04,22,05,58,13.10
2016,04,22,05,59,13.10
2016,04,22,06,00,13.10
2016,04,22,06,01,13.20
2016,04,22,06,02,13.20
2016,04,22,06,03,13.20
2016,04,22,06,04,13.20
2016,04,22,06,05,13.20
2016,04,22,06,06,13.20
2016,04,22,06,07,13.30
2016,04,22,06,08,13.30
2016,04,22,06,09,13.30
2016,04,22,06,10,13.30
2016,04,22,06,11,13.30
2016,04,22,06,12,13.30
2016,04,22,06,13,13.30
2016,04,22,06,14,13.40
2016,04,22,06,15,13.40
2016,04,22,06,16,13.40
2016,04,22,06,17,13.50
2016,04,22,06,18,13.50
2016,04,22,06,19,13.50
2016,04,22,06,20,13.50
2016,04,22,06,21,13.50
2016,04,22,06,22,13.50
2016,04,22,06,23,13.50
2016,04,22,06,24,13.60
2016,04,22,06,25,13.50
2016,04,22,06,26,13.60
2016,04,22,06,27,13.60
2016,04,22,06,28,13.50
2016,04,22,06,29,13.60
2016,04,22,06,30,13.60
2016,04,22,06,31,13.60
2016,04,22,06,32,13.60
2016,04,22,06,33,13.60
2016,04,22,06,34,13.70
2016,04,22,06,35,13.70
2016,04,22,06,36,13.70
2016,04,22,06,37,13.80
2016,04,22,06,38,13.80
2016,04,22,06,39,13.90
2016,04,22,06,40,13.90
2016,04,22,06,41,14.00
2016,04,22,06,42,14.10
2016,04,22,06,43,14.10
2016,04,22,06,44,14.20
2016,04,22,06,45,14.20
2016,04,22,06,46,14.20
2016,04,22,06,47,14.30
2016,04,22,06,48,14.30
2016,04,22,06,49,14.40
2016,04,22,06,50,14.40
2016,04,22,06,51,14.40
2016,04,22,06,52,14.50
2016,04,22,06,53,14.50
2016,04,22,06,54,14.50
2016,04,22,06,55,14.60
2016,04,22,06,56,14.60
2016,04,22,06,57,14.60
2016,04,22,06,58,14.60
2016,04,22,06,59,14.60
2016,04,22,07,00,14.60
2016,04,22,07,01,14.60
2016,04,22,07,02,14.60
2016,04,22,07,03,14.60
2016,04,22,07,04,14.60
2016,04,22,07,05,14.60
2016,04,22,07,06,14.60
2016,04,22,07,07,14.60
2016,04,22,07,08,14.60
2016,04,22,07,09,14.60
2016,04,22,07,10,14.60
2016,04,22,07,11,14.60
2016,04,22,07,12,14.60
2016,04,22,07,13,14.60
2016,04,22,07,14,14.50
2016,04,22,07,15,14.50
2016,04,22,07,16,14.50
2016,04,22,07,17,14.50
2016,04,22,07,18,14.50
2016,04,22,07,19,14.40
2016,04,22,07,20,14.40
2016,04,22,07,21,14.40
2016,04,22,07,22,14.40
2016,04,22,07,23,14.40
2016,04,22,07,24,14.40
2016,04,22,07,25,14.30
2016,04,22,07,26,14.30
2016,04,22,07,27,14.30
2016,04,22,07,28,14.30
2016,04,22,07,29,14.30
2016,04,22,07,30,14.30
2016,04,22,07,31,14.20
2016,04,22,07,32,14.20
2016,04,22,07,33,14.20
2016,04,22,07,34,14.20
2016,04,22,07,35,14.10
2016,04,22,07,36,14.10
2016,04,22,07,37,14.10
2016,04,22,07,38,14.10
2016,04,22,07,39,14.00
2016,04,22,07,40,14.00
2016,04,22,07,41,14.00
2016,04,22,07,42,14.00
2016,04,22,07,43,14.00
2016,04,22,07,44,14.00
2016,04,22,07,45,14.00
2016,04,22,07,46,14.00
2016,04,22,07,47,14.00
2016,04,22,07,48,14.00
2016,04,22,07,49,14.00
2016,04,22,07,50,14.00
2016,04,22,07,51,14.00
2016,04,22,07,52,14.00
2016,04,22,07,53,14.00
2016,04,22,07,54,14.00
2016,04,22,07,55,14.00
2016,04,22,07,56,14.00
2016,04,22,07,57,14.10
2016,04,22,07,58,14.10
2016,04,22,07,59,14.10
2016,04,22,08,00,14.10
2016,04,22,08,01,14.10
2016,04,22,08,02,14.10
2016,04,22,08,03,14.10
2016,04,22,08,04,14.10
2016,04,22,08,05,14.20
2016,04,22,08,06,14.20
2016,04,22,08,07,14.20
2016,04,22,08,08,14.20
2016,04,22,08,09,14.20
2016,04,22,08,10,14.20
2016,04,22,08,11,14.20
2016,04,22,08,12,14.20
2016,04,22,08,13,14.20
2016,04,22,08,14,14.20
2016,04,22,08,15,14.20
2016,04,22,08,16,14.20
2016,04,22,08,17,14.10
2016,04,22,08,18,14.10
2016,04,22,08,19,14.10
2016,04,22,08,20,14.10
2016,04,22,08,21,14.00
2016,04,22,08,22,14.00
2016,04,22,08,23,13.90
2016,04,22,08,24,13.90
2016,04,22,08,25,13.80
2016,04,22,08,26,13.80
2016,04,22,08,27,13.80
2016,04,22,08,28,13.70
2016,04,22,08,29,13.70
2016,04,22,08,30,13.70
2016,04,22,08,31,13.70
2016,04,22,08,32,13.70
2016,04,22,08,33,13.70
2016,04,22,08,34,13.60
2016,04,22,08,35,13.60
2016,04,22,08,36,13.60
2016,04,22,08,37,13.70
2016,04,22,08,38,13.70
2016,04,22,08,39,13.70
2016,04,22,08,40,13.70
2016,04,22,08,41,13.70
2016,04,22,08,42,13.70
2016,04,22,08,43,13.70
2016,04,22,08,44,13.70
2016,04,22,08,45,13.70
2016,04,22,08,46,13.70
2016,04,22,08,47,13.70
2016,04,22,08,48,13.70
2016,04,22,08,49,13.70
2016,04,22,08,50,13.70
2016,04,22,08,51,13.70
2016,04,22,08,52,13.70
2016,04,22,08,53,13.80
2016,04,22,08,54,13.80
2016,04,22,08,55,13.80
2016,04,22,08,56,13.90
2016,04,22,08,57,13.90
2016,04,22,08,58,13.90
2016,04,22,08,59,14.00
2016,04,22,09,00,14.10
2016,04,22,09,01,14.10
2016,04,22,09,02,14.10
2016,04,22,09,03,14.20
2016,04,22,09,04,14.20
2016,04,22,09,05,14.20
2016,04,22,09,06,14.20
2016,04,22,09,07,14.20
2016,04,22,09,08,14.20
2016,04,22,09,09,14.20
2016,04,22,09,10,14.30
2016,04,22,09,11,14.30
2016,04,22,09,12,14.30
2016,04,22,09,13,14.30
2016,04,22,09,14,14.30
2016,04,22,09,15,14.40
2016,04,22,09,16,14.40
2016,04,22,09,17,14.30
2016,04,22,09,18,14.20
2016,04,22,09,19,14.00
2016,04,22,09,20,13.90
2016,04,22,09,21,13.80
2016,04,22,09,22,13.70
2016,04,22,09,23,13.60
2016,04,22,09,24,13.40
2016,04,22,09,25,13.30
2016,04,22,09,26,13.10
2016,04,22,09,27,13.00
2016,04,22,09,28,12.90
2016,04,22,09,29,12.90
2016,04,22,09,30,12.80
2016,04,22,09,31,12.80
2016,04,22,09,32,12.70
2016,04,22,09,33,12.70
2016,04,22,09,34,12.70
2016,04,22,09,35,12.70
2016,04,22,09,36,12.70
2016,04,22,09,37,12.70
2016,04,22,09,38,12.70
2016,04,22,09,39,12.70
2016,04,22,09,40,12.70
2016,04,22,09,41,12.70
2016,04,22,09,42,12.80
2016,04,22,09,43,12.80
2016,04,22,09,44,12.80
2016,04,22,09,45,12.80
2016,04,22,09,46,12.80
2016,04,22,09,47,12.80
2016,04,22,09,48,12.90
2016,04,22,09,49,12.90
2016,04,22,09,50,12.90
2016,04,22,09,51,13.00
2016,04,22,09,52,13.10
2016,04,22,09,53,13.10
2016,04,22,09,54,13.20
2016,04,22,09,55,13.20
2016,04,22,09,56,13.30
2016,04,22,09,57,13.30
2016,04,22,09,58,13.40
2016,04,22,09,59,13.40
2016,04,22,10,00,13.50
2016,04,22,10,01,13.50
2016,04,22,10,02,13.50
2016,04,22,10,03,13.60
2016,04,22,10,04,13.60
2016,04,22,10,05,13.70
2016,04,22,10,06,13.70
2016,04,22,10,07,13.70
2016,04,22,10,08,13.80
2016,04,22,10,09,13.80
2016,04,22,10,10,13.80
2016,04,22,10,11,13.80
2016,04,22,10,12,13.80
2016,04,22,10,13,13.90
2016,04,22,10,14,13.90
2016,04,22,10,15,13.90
2016,04,22,10,16,14.00
2016,04,22,10,17,14.00
2016,04,22,10,18,14.10
2016,04,22,10,19,14.20
2016,04,22,10,20,14.20
2016,04,22,10,21,14.30
2016,04,22,10,22,14.30
2016,04,22,10,23,14.40
2016,04,22,10,24,14.50
2016,04,22,10,25,14.50
2016,04,22,10,26,14.60
2016,04,22,10,27,14.70
2016,04,22,10,28,14.80
2016,04,22,10,29,14.80
2016,04,22,10,30,14.80
2016,04,22,10,31,14.90
2016,04,22,10,32,15.00
2016,04,22,10,33,15.00
2016,04,22,10,34,15.00
2016,04,22,10,35,15.00
2016,04,22,10,36,15.00
2016,04,22,10,37,15.00
2016,04,22,10,38,15.10
2016,04,22,10,39,15.20
2016,04,22,10,40,15.30
2016,04,22,10,41,15.30
2016,04,22,10,42,15.40
2016,04,22,10,43,15.40
2016,04,22,10,44,15.40
2016,04,22,10,45,15.40
2016,04,22,10,46,15.40
2016,04,22,10,47,15.40
2016,04,22,10,48,15.50
2016,04,22,10,49,15.50
2016,04,22,10,50,15.50
2016,04,22,10,51,15.60
2016,04,22,10,52,15.60
2016,04,22,10,53,15.70
2016,04,22,10,54,15.70
2016,04,22,10,55,15.80
2016,04,22,10,56,15.80
2016,04,22,10,57,15.80
2016,04,22,10,58,15.80
2016,04,22,10,59,15.80
2016,04,22,11,00,15.90
2016,04,22,11,01,15.90
2016,04,22,11,02,15.80
2016,04,22,11,03,15.90
2016,04,22,11,04,15.90
2016,04,22,11,05,15.90
2016,04,22,11,06,15.90
2016,04,22,11,07,15.90
2016,04,22,11,08,15.90
2016,04,22,11,09,15.90
2016,04,22,11,10,16.00
2016,04,22,11,11,16.00
2016,04,22,11,12,16.10
2016,04,22,11,13,16.10
2016,04,22,11,14,16.20
2016,04,22,11,15,16.20
2016,04,22,11,16,16.10
2016,04,22,11,17,16.10
2016,04,22,11,18,16.00
2016,04,22,11,19,16.00
2016,04,22,11,20,15.90
2016,04,22,11,21,15.80
2016,04,22,11,22,15.70
2016,04,22,11,23,15.70
2016,04,22,11,24,15.60
2016,04,22,11,25,15.60
2016,04,22,11,26,15.60
2016,04,22,11,27,15.60
2016,04,22,11,28,15.60
2016,04,22,11,29,15.70
2016,04,22,11,30,15.70
2016,04,22,11,31,15.70
2016,04,22,11,32,15.70
2016,04,22,11,33,15.70
2016,04,22,11,34,15.70
2016,04,22,11,35,15.70
2016,04,22,11,36,15.70
2016,04,22,11,37,15.70
2016,04,22,11,38,15.70
2016,04,22,11,39,15.80
2016,04,22,11,40,15.80
2016,04,22,11,41,15.80
2016,04,22,11,42,15.80
2016,04,22,11,43,15.80
2016,04,22,11,44,15.70
2016,04,22,11,45,15.70
2016,04,22,11,46,15.80
2016,04,22,11,47,15.70
2016,04,22,11,48,15.70
2016,04,22,11,49,15.70
2016,04,22,11,50,15.80
2016,04,22,11,51,15.80
2016,04,22,11,52,15.80
2016,04,22,11,53,15.90
2016,04,22,11,54,15.90
2016,04,22,11,55,15.90
2016,04,22,11,56,16.00
2016,04,22,11,57,16.00
2016,04,22,11,58,16.00
2016,04,22,11,59,16.00
2016,04,22,12,00,16.10
2016,04,22,12,01,16.10
2016,04,22,12,02,16.20
2016,04,22,12,03,16.20
2016,04,22,12,04,16.30
2016,04,22,12,05,16.30
2016,04,22,12,06,16.40
2016,04,22,12,07,16.40
2016,04,22,12,08,16.50
2016,04,22,12,09,16.50
2016,04,22,12,10,16.60
2016,04,22,12,11,16.70
2016,04,22,12,12,16.60
2016,04,22,12,13,16.70
2016,04,22,12,14,16.70
2016,04,22,12,15,16.70
2016,04,22,12,16,16.80
2016,04,22,12,17,16.80
2016,04,22,12,18,16.80
2016,04,22,12,19,16.80
2016,04,22,12,20,16.80
2016,04,22,12,21,16.80
2016,04,22,12,22,16.70
2016,04,22,12,23,16.60
2016,04,22,12,24,16.60
2016,04,22,12,25,16.50
2016,04,22,12,26,16.40
2016,04,22,12,27,16.40
2016,04,22,12,28,16.40
2016,04,22,12,29,16.40
2016,04,22,12,30,16.30
2016,04,22,12,31,16.20
2016,04,22,12,32,16.20
2016,04,22,12,33,16.20
2016,04,22,12,34,16.30
2016,04,22,12,35,16.30
2016,04,22,12,36,16.30
2016,04,22,12,37,16.30
2016,04,22,12,38,16.30
2016,04,22,12,39,16.30
2016,04,22,12,40,16.30
2016,04,22,12,41,16.20
2016,04,22,12,42,16.10
2016,04,22,12,43,16.00
2016,04,22,12,44,15.90
2016,04,22,12,45,15.90
2016,04,22,12,46,15.80
2016,04,22,12,47,15.80
2016,04,22,12,48,15.80
2016,04,22,12,49,15.90
2016,04,22,12,50,15.90
2016,04,22,12,51,15.90
2016,04,22,12,52,15.90
2016,04,22,12,53,15.90
2016,04,22,12,54,15.90
2016,04,22,12,55,16.00
2016,04,22,12,56,16.00
2016,04,22,12,57,16.00
2016,04,22,12,58,16.00
2016,04,22,12,59,16.10
2016,04,22,13,00,16.10
2016,04,22,13,01,16.10
2016,04,22,13,02,16.20
2016,04,22,13,03,16.30
2016,04,22,13,04,16.30
2016,04,22,13,05,16.40
2016,04,22,13,06,16.50
2016,04,22,13,07,16.60
2016,04,22,13,08,16.70
2016,04,22,13,09,16.80
2016,04,22,13,10,16.90
2016,04,22,13,11,17.00
2016,04,22,13,12,17.10
2016,04,22,13,13,17.20
2016,04,22,13,14,17.30
2016,04,22,13,15,17.30
2016,04,22,13,16,17.30
2016,04,22,13,17,17.30
2016,04,22,13,18,17.30
2016,04,22,13,19,17.30
2016,04,22,13,20,17.30
2016,04,22,13,21,17.30
2016,04,22,13,22,17.40
2016,04,22,13,23,17.50
2016,04,22,13,24,17.50
2016,04,22,13,25,17.50
2016,04,22,13,26,17.40
2016,04,22,13,27,17.40
2016,04,22,13,28,17.50
2016,04,22,13,29,17.50
2016,04,22,13,30,17.60
2016,04,22,13,31,17.70
2016,04,22,13,32,17.80
2016,04,22,13,33,17.90
2016,04,22,13,34,17.90
2016,04,22,13,35,18.00
2016,04,22,13,36,18.00
2016,04,22,13,37,18.10
2016,04,22,13,38,18.20
2016,04,22,13,39,18.30
2016,04,22,13,40,18.50
2016,04,22,13,41,18.60
2016,04,22,13,42,18.70
2016,04,22,13,43,18.80
2016,04,22,13,44,18.90
2016,04,22,13,45,19.00
2016,04,22,13,46,19.10
2016,04,22,13,47,19.10
2016,04,22,13,48,19.10
2016,04,22,13,49,19.10
2016,04,22,13,50,19.00
2016,04,22,13,51,18.90
2016,04,22,13,52,18.80
2016,04,22,13,53,18.80
2016,04,22,13,54,18.80
2016,04,22,13,55,18.70
2016,04,22,13,56,18.50
2016,04,22,13,57,18.40
2016,04,22,13,58,18.40
2016,04,22,13,59,18.40
2016,04,22,14,00,18.40
2016,04,22,14,01,18.40
2016,04,22,14,02,18.40
2016,04,22,14,03,18.40
2016,04,22,14,04,18.50
2016,04,22,14,05,18.40
2016,04,22,14,06,18.40
2016,04,22,14,07,18.30
2016,04,22,14,08,18.30
2016,04,22,14,09,18.30
2016,04,22,14,10,18.30
2016,04,22,14,11,18.20
2016,04,22,14,12,18.20
2016,04,22,14,13,18.20
2016,04,22,14,14,18.20
2016,04,22,14,15,18.30
2016,04,22,14,16,18.30
2016,04,22,14,17,18.40
2016,04,22,14,18,18.40
2016,04,22,14,19,18.40
2016,04,22,14,20,18.50
2016,04,22,14,21,18.60
2016,04,22,14,22,18.70
2016,04,22,14,23,18.80
2016,04,22,14,24,18.80
2016,04,22,14,25,18.70
2016,04,22,14,26,18.70
2016,04,22,14,27,18.70
2016,04,22,14,28,18.70
2016,04,22,14,29,18.70
2016,04,22,14,30,18.70
2016,04,22,14,31,18.60
2016,04,22,14,32,18.50
2016,04,22,14,33,18.40
2016,04,22,14,34,18.30
2016,04,22,14,35,18.30
2016,04,22,14,36,18.30
2016,04,22,14,37,18.30
2016,04,22,14,38,18.20
2016,04,22,14,39,18.20
2016,04,22,14,40,18.30
2016,04,22,14,41,18.30
2016,04,22,14,42,18.20
2016,04,22,14,43,18.20
2016,04,22,14,44,18.20
2016,04,22,14,45,18.10
2016,04,22,14,46,18.00
2016,04,22,14,47,17.90
2016,04,22,14,48,17.80
2016,04,22,14,49,17.70
2016,04,22,14,50,17.70
2016,04,22,14,51,17.60
2016,04,22,14,52,17.60
2016,04,22,14,53,17.50
2016,04,22,14,54,17.40
2016,04,22,14,55,17.40
2016,04,22,14,56,17.30
2016,04,22,14,57,17.30
2016,04,22,14,58,17.30
2016,04,22,14,59,17.30
2016,04,22,15,00,17.20
2016,04,22,15,01,17.20
2016,04,22,15,02,17.20
2016,04,22,15,03,17.20
2016,04,22,15,04,17.20
2016,04,22,15,05,17.20
2016,04,22,15,06,17.10
2016,04,22,15,07,17.10
2016,04,22,15,08,17.10
2016,04,22,15,09,17.10
2016,04,22,15,10,17.10
2016,04,22,15,11,17.10
2016,04,22,15,12,17.10
2016,04,22,15,13,17.10
2016,04,22,15,14,17.10
2016,04,22,15,15,17.00
2016,04,22,15,16,17.00
2016,04,22,15,17,17.00
2016,04,22,15,18,17.00
2016,04,22,15,19,17.00
2016,04,22,15,20,17.00
2016,04,22,15,21,17.00
2016,04,22,15,22,17.00
2016,04,22,15,23,17.00
2016,04,22,15,24,17.10
2016,04,22,15,25,17.10
2016,04,22,15,26,17.10
2016,04,22,15,27,17.10
2016,04,22,15,28,17.10
2016,04,22,15,29,17.00
2016,04,22,15,30,17.00
2016,04,22,15,31,17.10
2016,04,22,15,32,17.10
2016,04,22,15,33,17.10
2016,04,22,15,34,17.10
2016,04,22,15,35,17.10
2016,04,22,15,36,17.10
2016,04,22,15,37,17.00
2016,04,22,15,38,17.00
2016,04,22,15,39,17.00
2016,04,22,15,40,17.00
2016,04,22,15,41,16.90
2016,04,22,15,42,16.90
2016,04,22,15,43,16.80
2016,04,22,15,44,16.80
2016,04,22,15,45,16.80
2016,04,22,15,46,16.70
2016,04,22,15,47,16.70
2016,04,22,15,48,16.60
2016,04,22,15,49,16.60
2016,04,22,15,50,16.60
2016,04,22,15,51,16.50
2016,04,22,15,52,16.50
2016,04,22,15,53,16.50
2016,04,22,15,54,16.40
2016,04,22,15,55,16.40
2016,04,22,15,56,16.40
2016,04,22,15,57,16.40
2016,04,22,15,58,16.40
2016,04,22,15,59,16.40
2016,04,22,16,00,16.40
2016,04,22,16,01,16.40
2016,04,22,16,02,16.40
2016,04,22,16,03,16.30
2016,04,22,16,04,16.30
2016,04,22,16,05,16.40
2016,04,22,16,06,16.30
2016,04,22,16,07,16.30
2016,04,22,16,08,16.30
2016,04,22,16,09,16.30
2016,04,22,16,10,16.20
2016,04,22,16,11,16.20
2016,04,22,16,12,16.20
2016,04,22,16,13,16.20
2016,04,22,16,14,16.20
2016,04,22,16,15,16.10
2016,04,22,16,16,16.10
2016,04,22,16,17,16.10
2016,04,22,16,18,16.00
2016,04,22,16,19,16.00
2016,04,22,16,20,16.00
2016,04,22,16,21,16.00
2016,04,22,16,22,15.90
2016,04,22,16,23,15.90
2016,04,22,16,24,15.90
2016,04,22,16,25,15.80
2016,04,22,16,26,15.80
2016,04,22,16,27,15.80
2016,04,22,16,28,15.70
2016,04,22,16,29,15.70
2016,04,22,16,30,15.70
2016,04,22,16,31,15.60
2016,04,22,16,32,15.60
2016,04,22,16,33,15.60
2016,04,22,16,34,15.50
2016,04,22,16,35,15.50
2016,04,22,16,36,15.40
2016,04,22,16,37,15.40
2016,04,22,16,38,15.40
2016,04,22,16,39,15.30
2016,04,22,16,40,15.30
2016,04,22,16,41,15.30
2016,04,22,16,42,15.20
2016,04,22,16,43,15.20
2016,04,22,16,44,15.10
2016,04,22,16,45,15.10
2016,04,22,16,46,15.00
2016,04,22,16,47,15.00
2016,04,22,16,48,15.00
2016,04,22,16,49,15.00
2016,04,22,16,50,15.00
2016,04,22,16,51,15.00
2016,04,22,16,52,15.00
2016,04,22,16,53,15.00
2016,04,22,16,54,14.90
2016,04,22,16,55,14.80
2016,04,22,16,56,14.80
2016,04,22,16,57,14.70
2016,04,22,16,58,14.70
2016,04,22,16,59,14.60
2016,04,22,17,00,14.60
2016,04,22,17,01,14.50
2016,04,22,17,02,14.50
2016,04,22,17,03,14.50
2016,04,22,17,04,14.40
2016,04,22,17,05,14.40
2016,04,22,17,06,14.40
2016,04,22,17,07,14.40
2016,04,22,17,08,14.40
2016,04,22,17,09,14.40
2016,04,22,17,10,14.30
2016,04,22,17,11,14.30
2016,04,22,17,12,14.30
2016,04,22,17,13,14.30
2016,04,22,17,14,14.30
2016,04,22,17,15,14.30
2016,04,22,17,16,14.30
2016,04,22,17,17,14.30
2016,04,22,17,18,14.30
2016,04,22,17,19,14.30